Temp
-6 -5 -5 -5 -5 -5 -5 -5 -5 -6 -6 -6 -6 -6 -6 -6 -6 -7 -7 -7 -8 -7 -6 -5 -5 -5 -5 -4 -5 -5 -5 -5 -5 -5 -6 -5 -5 -5 -6 -6 -6 -6 -6 -6 -7 -7 -8 -7 -7
-5 -6 -5 -5 -5 -6 -6 -5 -5 -5 -6 -5 -6 -6 -6 -6 -6 -6 -6 -5 -5 -5 -5 -5 -5 -4 -5 -5 -5 -5 -5 -5 -5 -5 -5 -5 -5 -5 -6 -6 -6 -6 -6 -6 -6 -7 -7 -7 -7
-6 -6 -6 -5 -6 -5 -6 -6 -6 -5 -5 -6 -6 -6 -6 -6 -6 -6 -6 -5 -5 -5 -5 -5 -4 -5 -5 -5 -5 -5 -5 -5 -5 -5 -5 -5 -5 -5 -6 -6 -6 -6 -6 -6 -6 -6 -6 -7 -7
-6 -6 -6 -5 -6 -5 -6 -6 -6 -6 -5 -5 -5 -6 -5 -6 -5 -5 -6 -6 -5 -5 -5 -5 -5 -5 -5 -5 -5 -5 -5 -5 -6 -6 -5 -5 -5 -5 -6 -6 -6 -5 -6 -6 -6 -6 -6 -7 -7
-5 -5 -6 -5 -5 -6 -6 -6 -5 -6 -6 -5 -5 -5 -5 -5 -5 -5 -5 -5 -5 -5 -5 -5 -5 -5 -5 -5 -5 -5 -5 -5 -6 -6 -6 -5 -5 -5 -5 -6 -6 -6 -6 -6 -6 -6 -6 -7 -7
-5 -6 -6 -6 -5 -5 -6 -5 -5 -6 -6 -6 -5 -5 -5 -5 -5 -5 -5 -5 -5 -4 -4 -5 -5 -5 -5 -5 -5 -5 -5 -5 -6 -6 -5 -5 -5 -5 -5 -6 -6 -6 -6 -6 -6 -6 -6 -6 -6
-4 -5 -5 -6 -6 -6 -6 -6 -6 -5 -6 -6 -5 -5 -6 -5 -5 -5 -5 -5 -5 -4 -5 -5 -5 -5 -5 -5 -5 -5 -5 -5 -6 -6 -6 -5 -6 -6 -5 -6 -6 -6 -6 -6 -6 -6 -6 -6 -6
-4 -4 -5 -5 -5 -6 -7 -7 -5 -6 -6 -6 -6 -5 -5 -5 -5 -5 -5 -5 -5 -5 -5 -5 -5 -5 -5 -5 -5 -6 -5 -5 -5 -5 -6 -6 -5 -6 -6 -6 -5 -6 -6 -6 -6 -6 -7 -6 -6
-5 -5 -5 -5 -5 -6 -6 -6 -6 -6 -6 -6 -5 -6 -6 -6 -5 -5 -5 -5 -5 -5 -5 -6 -5 -5 -5 -5 -5 -6 -6 -5 -5 -6 -6 -6 -5 -6 -6 -5 -5 -6 -6 -6 -6 -6 -6 -6 -5
-5 -6 -6 -5 -5 -5 -6 -6 -5 -5 -6 -6 -6 -5 -5 -6 -6 -5 -5 -5 -6 -6 -5 -6 -6 -6 -6 -5 -5 -6 -5 -6 -6 -6 -6 -6 -5 -6 -6 -5 -5 -6 -6 -6 -6 -6 -6 -6 -6
-6 -5 -6 -6 -6 -6 -6 -5 -5 -5 -6 -6 -6 -6 -5 -5 -6 -6 -6 -6 -5 -6 -6 -6 -6 -6 -6 -5 -5 -6 -6 -6 -6 -6 -6 -6 -6 -6 -5 -6 -6 -6 -6 -6 -6 -6 -5 -6 -6
-5 -6 -6 -6 -6 -6 -6 -6 -6 -5 -5 -6 -6 -6 -6 -6 -5 -6 -6 -6 -6 -5 -6 -5 -5 -6 -6 -6 -6 -6 -6 -6 -6 -6 -6 -6 -6 -5 -6 -6 -5 -6 -6 -6 -6 -5 -5 -6 -6
-5 -6 -7 -6 -7 -6 -6 -6 -6 -6 -6 -6 -6 -6 -6 -6 -6 -6 -6 -6 -6 -6 -6 -6 -6 -6 -6 -6 -6 -6 -6 -6 -6 -6 -6 -6 -6 -6 -6 -6 -6 -6 -6 -6 -6 -5 -5 -5 -6
-5 -6 -6 -6 -7 -6 -6 -6 -7 -7 -6 -6 -6 -6 -6 -6 -6 -6 -6 -5 -5 -6 -6 -6 -6 -6 -6 -6 -6 -6 -6 -6 -6 -6 -6 -6 -6 -6 -6 -6 -5 -5 -5 -6 -5 -6 -5 -5 -5
-6 -6 -6 -6 -6 -5 -6 -6 -7 -7 -7 -6 -7 -6 -6 -6 -6 -6 -6 -6 -6 -6 -6 -7 -7 -6 -6 -6 -6 -6 -6 -6 -6 -6 -6 -5 -5 -6 -6 -5 -6 -6 -6 -6 -6 -6 -6 -6 -5
-6 -6 -6 -6 -6 -6 -5 -6 -6 -7 -7 -7 -6 -6 -6 -6 -6 -6 -6 -6 -6 -6 -7 -7 -7 -7 -7 -6 -6 -6 -6 -7 -6 -6 -6 -6 -6 -6 -6 -6 -6 -6 -6 -6 -6 -6 -6 -6 -6
-6 -5 -6 -7 -6 -6 -6 -6 -7 -7 -7 -7 -7 -6 -7 -7 -6 -6 -6 -6 -6 -6 -7 -7 -7 -7 -7 -7 -6 -6 -6 -6 -6 -6 -6 -6 -7 -6 -6 -6 -6 -6 -6 -6 -6 -6 -6 -6 -6
-6 -5 -7 -7 -6 -6 -6 -7 -6 -6 -7 -7 -7 -7 -7 -7 -7 -6 -6 -6 -6 -7 -7 -7 -7 -7 -6 -6 -6 -6 -6 -6 -6 -6 -7 -7 -7 -7 -6 -6 -6 -6 -6 -6 -6 -6 -6 -6 -6
-7 -6 -6 -5 -6 -6 -6 -6 -6 -7 -6 -6 -6 -7 -7 -7 -7 -7 -6 -6 -6 -6 -6 -7 -6 -6 -6 -6 -6 -7 -6 -6 -6 -6 -6 -6 -6 -6 -6 -6 -6 -6 -6 -6 -6 -6 -6 -6 -6
-6 -7 -6 -6 -6 -6 -6 -6 -6 -6 -7 -7 -7 -7 -7 -7 -7 -7 -7 -7 -6 -7 -6 -6 -6 -6 -6 -6 -6 -6 -6 -5 -5 -6 -6 -6 -7 -7 -6 -7 -7 -7 -6 -6 -6 -6 -6 -6 -6
-6 -6 -6 -6 -6 -6 -6 -6 -6 -6 -6 -7 -6 -6 -7 -7 -7 -7 -6 -7 -7 -7 -7 -7 -6 -6 -7 -7 -6 -7 -6 -6 -6 -6 -6 -7 -7 -7 -7 -7 -7 -7 -7 -7 -6 -6 -6 -6 -6
-6 -7 -6 -6 -7 -7 -7 -7 -7 -6 -6 -6 -6 -6 -6 -7 -7 -7 -7 -6 -7 -7 -7 -7 -6 -6 -6 -6 -7 -7 -6 -6 -6 -6 -6 -6 -7 -7 -7 -7 -7 -7 -8 -8 -6 -6 -6 -6 -6
-7 -7 -6 -7 -7 -8 -8 -7 -7 -6 -6 -6 -6 -6 -7 -7 -7 -7 -7 -7 -7 -7 -7 -7 -6 -6 -6 -6 -6 -7 -7 -7 -6 -7 -7 -7 -7 -7 -8 -7 -7 -8 -8 -8 -7 -6 -6 -6 -6
-7 -7 -7 -6 -6 -7 -8 -7 -6 -6 -6 -6 -6 -6 -7 -7 -7 -7 -7 -7 -7 -7 -7 -7 -7 -6 -6 -6 -6 -6 -7 -7 -7 -7 -7 -7 -7 -7 -7 -7 -7 -8 -8 -7 -6 -6 -6 -6 -6
-6 -7 -8 -7 -6 -6 -7 -7 -6 -6 -6 -6 -6 -7 -7 -8 -8 -7 -8 -8 -7 -7 -7 -7 -7 -7 -6 -6 -6 -6 -6 -7 -7 -7 -7 -7 -7 -7 -7 -7 -7 -8 -7 -6 -6 -6 -6 -6 -6
-7 -7 -8 -7 -6 -7 -7 -7 -6 -6 -6 -6 -6 -7 -7 -7 -8 -8 -8 -8 -8 -8 -7 -7 -7 -8 -6 -6 -7 -7 -7 -7 -7 -7 -7 -7 -7 -7 -7 -7 -7 -8 -7 -6 -6 -6 -6 -6 -6
-7 -7 -7 -7 -7 -7 -7 -7 -6 -6 -6 -6 -7 -7 -7 -8 -8 -8 -7 -7 -8 -8 -8 -8 -7 -8 -8 -7 -7 -7 -7 -7 -7 -7 -7 -8 -7 -7 -7 -7 -7 -7 -7 -7 -6 -6 -6 -7 -6
-7 -7 -7 -7 -7 -7 -7 -6 -6 -6 -7 -6 -7 -7 -7 -8 -8 -8 -8 -7 -8 -8 -8 -8 -8 -8 -8 -8 -8 -8 -8 -7 -7 -7 -7 -8 -7 -7 -7 -7 -7 -7 -7 -7 -6 -6 -6 -6 -6
-7 -7 -7 -7 -7 -7 -7 -6 -7 -7 -7 -7 -7 -6 -6 -7 -7 -8 -8 -7 -8 -8 -8 -8 -8 -8 -8 -9 -8 -8 -8 -8 -8 -8 -8 -7 -7 -8 -8 -7 -8 -7 -7 -8 -7 -7 -7 -7 -7
-8 -8 -8 -7 -7 -7 -7 -7 -7 -7 -7 -6 -7 -7 -7 -6 -6 -7 -7 -8 -8 -8 -8 -8 -8 -8 -8 -8 -9 -8 -8 -8 -8 -8 -8 -8 -8 -8 -8 -8 -8 -8 -8 -8 -8 -8 -7 -7 -7
Height
5900 5897 5895 5896 5896 5892 5890 5889 5888 5887 5887 5888 5888 5889 5890 5891 5892 5893 5893 5893 5892 5894 5896 5896 5897 5899 5899 5900 5902 5904 5905 5908 5909 5908 5907 5909 5910 5911 5910 5907 5905 5906 5903 5901 5900 5899 5898 5896 5896
5901 5899 5898 5898 5896 5894 5894 5890 5889 5890 5890 5890 5890 5891 5893 5894 5896 5894 5898 5899 5899 5899 5899 5900 5901 5903 5900 5905 5906 5907 5907 5910 5912 5910 5909 5911 5912 5913 5913 5913 5909 5908 5907 5905 5902 5901 5900 5898 5898
5903 5901 5903 5901 5899 5897 5894 5892 5894 5894 5895 5894 5894 5896 5896 5897 5899 5898 5901 5903 5903 5904 5902 5902 5903 5903 5906 5908 5911 5910 5912 5913 5914 5912 5912 5912 5915 5915 5915 5916 5913 5913 5910 5909 5905 5904 5902 5903 5901
5905 5907 5907 5905 5901 5899 5899 5897 5897 5898 5897 5897 5898 5899 5900 5901 5901 5901 5903 5906 5906 5907 5906 5905 5906 5907 5910 5911 5913 5913 5915 5916 5916 5915 5914 5914 5916 5916 5918 5919 5916 5915 5914 5911 5908 5906 5903 5903 5903
5909 5909 5909 5907 5905 5903 5902 5899 5899 5899 5900 5901 5901 5900 5902 5903 5905 5905 5906 5908 5909 5909 5909 5909 5910 5911 5913 5913 5915 5915 5916 5918 5918 5917 5917 5918 5917 5920 5921 5921 5921 5918 5916 5912 5911 5908 5906 5905 5904
5913 5911 5910 5910 5908 5906 5904 5903 5903 5902 5903 5903 5904 5903 5905 5906 5907 5908 5909 5910 5911 5910 5911 5913 5913 5914 5916 5916 5918 5917 5919 5919 5919 5920 5921 5921 5920 5921 5921 5921 5923 5920 5917 5914 5912 5910 5909 5908 5907
5918 5914 5911 5911 5911 5909 5906 5907 5907 5906 5906 5907 5906 5906 5908 5909 5910 5909 5910 5911 5912 5913 5914 5915 5916 5916 5917 5919 5919 5920 5921 5921 5922 5921 5923 5923 5922 5922 5922 5922 5924 5922 5919 5917 5914 5912 5911 5909 5909
5923 5921 5917 5918 5916 5914 5910 5908 5909 5909 5909 5908 5909 5908 5910 5912 5913 5912 5913 5913 5914 5915 5917 5918 5917 5918 5918 5921 5922 5921 5922 5923 5923 5923 5925 5925 5924 5923 5923 5924 5925 5924 5921 5919 5917 5915 5912 5912 5911
5930 5927 5924 5922 5920 5920 5915 5912 5911 5911 5911 5911 5911 5911 5912 5912 5914 5914 5915 5916 5916 5917 5918 5920 5920 5920 5922 5922 5922 5922 5924 5923 5924 5926 5925 5926 5926 5924 5925 5926 5926 5925 5923 5921 5919 5917 5916 5913 5913
5931 5930 5926 5926 5923 5921 5919 5918 5915 5914 5913 5913 5911 5910 5912 5914 5915 5916 5916 5917 5918 5919 5920 5921 5921 5921 5922 5922 5924 5923 5925 5926 5925 5927 5926 5926 5925 5926 5926 5927 5926 5925 5924 5922 5921 5920 5919 5917 5915
5928 5932 5927 5926 5924 5926 5923 5922 5918 5916 5916 5916 5913 5910 5910 5914 5914 5915 5916 5918 5919 5920 5922 5922 5923 5922 5923 5924 5925 5925 5926 5927 5926 5927 5926 5926 5926 5926 5927 5926 5926 5925 5925 5923 5922 5921 5920 5920 5917
5928 5927 5926 5923 5926 5926 5926 5926 5922 5920 5920 5920 5918 5915 5913 5913 5915 5916 5918 5919 5920 5921 5922 5923 5922 5923 5924 5926 5927 5926 5928 5926 5926 5926 5926 5925 5926 5926 5928 5926 5926 5925 5925 5924 5922 5921 5921 5920 5918
5927 5925 5925 5927 5928 5929 5929 5929 5926 5924 5921 5921 5921 5920 5918 5917 5916 5917 5918 5918 5919 5920 5922 5922 5923 5924 5925 5927 5926 5926 5927 5926 5927 5926 5926 5926 5926 5928 5929 5927 5926 5926 5926 5924 5923 5922 5922 5920 5919
5926 5928 5926 5927 5930 5930 5931 5932 5928 5924 5922 5923 5922 5923 5921 5920 5919 5917 5916 5917 5918 5918 5921 5922 5922 5924 5925 5925 5925 5926 5927 5926 5927 5927 5926 5927 5927 5929 5929 5928 5927 5926 5926 5925 5923 5922 5921 5920 5919
5927 5928 5928 5932 5932 5933 5933 5931 5929 5928 5925 5924 5924 5925 5923 5923 5922 5919 5917 5918 5918 5917 5917 5918 5919 5921 5923 5924 5924 5926 5925 5926 5925 5926 5928 5930 5930 5930 5928 5927 5927 5927 5925 5924 5924 5922 5920 5919 5919
5933 5932 5931 5933 5934 5935 5935 5933 5931 5930 5928 5926 5923 5921 5922 5923 5924 5923 5920 5919 5919 5918 5918 5919 5919 5921 5922 5923 5924 5925 5925 5925 5927 5927 5928 5929 5929 5927 5927 5927 5927 5926 5925 5924 5923 5923 5922 5920 5919
5935 5935 5934 5934 5937 5937 5936 5935 5934 5932 5930 5927 5926 5925 5924 5924 5925 5925 5924 5921 5920 5919 5918 5920 5921 5922 5922 5922 5922 5923 5926 5927 5928 5928 5929 5929 5929 5928 5927 5927 5926 5926 5925 5923 5922 5923 5923 5921 5920
5935 5937 5935 5934 5937 5937 5936 5936 5936 5933 5930 5928 5926 5929 5927 5926 5925 5926 5925 5922 5920 5920 5920 5920 5922 5923 5922 5922 5925 5924 5926 5928 5929 5929 5929 5929 5931 5927 5927 5926 5925 5926 5924 5923 5922 5922 5922 5922 5920
5934 5937 5935 5934 5935 5937 5937 5936 5934 5934 5931 5930 5929 5928 5929 5928 5927 5925 5924 5922 5920 5920 5920 5921 5922 5922 5924 5926 5926 5924 5927 5930 5929 5927 5927 5929 5928 5926 5927 5926 5926 5925 5923 5922 5921 5921 5922 5921 5921
5933 5935 5936 5934 5936 5937 5937 5936 5934 5933 5933 5931 5930 5929 5930 5930 5927 5926 5924 5924 5921 5920 5921 5922 5923 5924 5924 5926 5926 5925 5926 5927 5927 5927 5928 5928 5926 5926 5925 5924 5923 5922 5920 5920 5919 5920 5920 5920 5920
5930 5932 5934 5933 5935 5936 5936 5936 5934 5934 5933 5932 5931 5929 5930 5929 5928 5926 5925 5925 5924 5922 5922 5922 5924 5924 5924 5925 5926 5925 5925 5925 5925 5925 5926 5926 5926 5925 5923 5922 5920 5918 5914 5916 5917 5918 5919 5919 5918
5927 5929 5930 5930 5931 5933 5934 5934 5933 5934 5935 5934 5933 5932 5930 5928 5928 5926 5925 5925 5925 5924 5923 5923 5925 5924 5924 5925 5925 5926 5926 5925 5925 5925 5925 5926 5925 5925 5923 5920 5917 5915 5911 5912 5914 5916 5918 5917 5917
5928 5926 5927 5930 5928 5932 5932 5933 5933 5934 5934 5933 5932 5932 5931 5928 5929 5927 5925 5925 5925 5925 5925 5925 5926 5925 5925 5925 5925 5925 5925 5926 5926 5926 5926 5926 5926 5924 5922 5920 5916 5913 5910 5910 5912 5914 5916 5916 5916
5922 5922 5924 5927 5926 5927 5929 5931 5931 5933 5933 5931 5931 5932 5930 5929 5928 5926 5924 5925 5926 5925 5925 5925 5927 5927 5927 5926 5924 5924 5924 5925 5925 5925 5926 5926 5926 5926 5924 5920 5915 5911 5908 5908 5911 5913 5914 5916 5917
5917 5918 5920 5922 5922 5926 5926 5928 5930 5930 5931 5932 5931 5931 5930 5929 5929 5926 5924 5923 5924 5924 5925 5927 5924 5926 5927 5926 5924 5924 5924 5924 5924 5924 5926 5927 5927 5927 5924 5919 5916 5911 5906 5905 5909 5911 5913 5915 5916
5915 5915 5916 5918 5920 5923 5923 5925 5928 5929 5929 5930 5929 5929 5928 5928 5928 5925 5923 5922 5921 5921 5923 5924 5924 5924 5925 5925 5923 5923 5924 5924 5925 5926 5927 5927 5927 5926 5923 5919 5917 5913 5907 5905 5908 5911 5914 5915 5916
5910 5911 5915 5915 5917 5919 5921 5924 5925 5926 5926 5927 5927 5927 5927 5926 5926 5924 5924 5922 5921 5921 5923 5923 5925 5923 5923 5923 5923 5923 5924 5924 5925 5926 5926 5926 5926 5924 5923 5921 5919 5916 5911 5908 5908 5911 5913 5915 5916
5905 5907 5908 5910 5912 5915 5919 5921 5921 5924 5923 5925 5924 5923 5923 5922 5923 5924 5923 5922 5920 5920 5922 5923 5923 5922 5922 5922 5921 5922 5923 5924 5924 5925 5925 5925 5925 5924 5924 5922 5921 5918 5914 5912 5910 5910 5911 5911 5912
5904 5902 5903 5906 5910 5913 5917 5918 5918 5920 5921 5920 5923 5923 5922 5920 5922 5922 5922 5920 5920 5920 5921 5921 5922 5922 5920 5919 5920 5922 5922 5923 5923 5924 5924 5925 5924 5924 5924 5922 5920 5919 5916 5914 5912 5911 5911 5910 5909
5899 5900 5902 5904 5909 5912 5913 5915 5915 5917 5918 5920 5919 5920 5922 5921 5921 5919 5919 5918 5920 5920 5919 5918 5920 5920 5917 5917 5920 5921 5922 5922 5922 5922 5923 5922 5922 5922 5921 5920 5918 5917 5915 5914 5912 5911 5909 5909 5908
Wind_Speed
22 21 17 11 18 24 21 22 23 18 14 18 20 20 23 21 24 26 22 23 30 24 21 18 20 21 22 21 19 17 17 15 14 18 18 18 18 18 18 18 16 14 17 16 14 14 13 13 15
26 25 21 14 17 20 17 19 20 21 17 17 17 18 20 19 18 20 14 13 16 19 21 19 19 19 22 19 17 16 16 15 15 18 17 18 18 16 17 17 19 16 17 17 15 15 13 13 15
28 27 21 21 19 14 15 17 14 16 19 17 16 15 18 19 17 19 16 15 14 16 18 20 18 19 18 17 15 16 16 15 15 17 17 19 17 17 15 16 19 17 16 14 16 16 15 14 16
27 29 23 25 22 18 13 13 13 15 17 17 16 14 12 14 14 17 15 13 15 15 15 16 16 15 15 14 14 15 14 14 14 14 16 17 15 14 15 15 17 16 16 16 17 15 15 14 16
28 25 28 26 27 21 16 12 12 15 14 13 13 14 12 9 9 11 14 13 13 13 14 14 15 14 12 13 13 14 14 13 13 15 15 13 12 10 13 13 13 15 15 14 16 16 17 15 16
24 27 28 26 27 26 21 15 11 11 12 12 11 15 9 6 9 10 12 13 12 14 13 12 13 14 12 13 11 13 12 13 13 14 14 12 11 11 11 12 11 11 12 12 14 17 16 16 15
18 21 23 21 26 24 25 18 14 10 9 10 10 12 10 5 7 9 9 9 11 11 11 13 14 14 14 12 10 10 10 11 10 11 11 11 9 10 9 11 11 11 13 11 13 18 19 14 16
15 24 25 22 22 21 21 20 16 15 13 9 5 10 12 9 8 10 9 8 8 8 10 10 12 13 13 11 9 10 9 8 8 7 6 7 8 7 8 10 10 11 11 13 14 14 17 15 13
17 25 20 20 19 21 20 20 19 17 15 10 6 6 10 9 12 10 11 9 8 9 10 12 14 13 11 11 10 8 7 7 7 4 5 3 5 6 7 8 7 8 8 9 14 14 15 12 12
17 14 22 20 18 20 21 18 20 22 19 12 11 6 6 8 10 10 12 11 11 10 11 12 11 13 11 11 9 7 5 5 6 4 4 3 5 6 7 6 6 7 7 7 9 8 16 11 10
16 13 17 14 10 15 19 20 20 20 23 17 15 9 7 4 6 7 10 11 11 11 12 11 11 10 10 9 8 6 5 4 5 4 6 5 5 4 3 4 4 4 6 6 9 11 5 7 7
11 15 22 19 9 12 15 20 21 19 20 22 19 12 7 4 5 4 7 10 11 11 10 10 10 9 7 4 3 3 4 6 5 4 4 6 3 1 1 4 5 4 5 6 7 8 8 6 5
15 20 22 15 13 11 13 16 23 25 21 22 21 17 10 6 5 5 5 7 8 8 9 7 6 6 5 4 2 2 3 4 4 3 3 2 2 1 2 3 4 5 3 4 5 6 7 6 4
14 18 22 17 13 13 14 15 18 24 20 19 19 18 17 10 8 7 3 3 6 6 8 9 6 6 6 5 3 3 4 4 3 2 2 1 1 2 4 5 6 6 6 6 7 6 5 4 3
9 13 12 10 11 12 11 11 14 16 16 14 17 17 16 14 12 11 7 4 3 2 2 2 2 4 5 6 4 6 1 4 5 4 2 2 2 5 7 8 9 10 9 8 6 6 5 3 2
2 7 8 6 9 8 10 9 10 11 12 13 13 15 15 14 10 11 10 8 5 6 6 4 3 3 6 5 7 5 4 3 4 5 2 1 2 3 6 6 7 9 8 6 5 4 4 4 3
2 12 10 6 9 4 9 9 9 10 11 9 10 10 14 14 9 6 8 9 9 6 5 7 5 5 7 7 6 6 6 4 3 3 3 2 0 5 6 7 8 8 8 6 4 3 3 3 3
5 10 12 7 3 6 19 16 14 9 6 6 9 7 9 13 9 7 5 7 9 8 7 5 6 7 8 7 6 7 8 5 7 6 6 5 1 6 6 6 6 7 7 8 6 3 4 3 1
8 5 10 10 6 5 4 8 7 9 8 7 12 7 7 8 9 8 7 4 6 8 7 6 3 2 6 8 8 7 5 7 6 7 5 3 1 4 6 7 8 8 7 6 5 2 2 3 2
13 11 6 11 9 6 6 5 9 10 8 2 10 6 6 7 7 7 9 6 5 6 6 5 2 4 3 4 6 6 6 5 5 3 3 4 1 6 8 10 15 18 15 8 4 2 3 3 2
15 14 11 7 11 10 5 5 2 8 6 8 5 7 2 5 6 8 8 6 6 6 4 4 1 2 2 3 6 7 5 5 5 6 6 1 3 6 11 14 18 20 13 10 6 3 5 3 3
13 14 12 4 8 3 2 6 6 6 14 2 4 10 6 3 3 6 8 7 5 4 3 3 1 1 1 2 2 5 5 6 6 6 5 3 6 7 10 13 17 19 10 10 9 5 4 3 0
17 20 17 13 12 7 6 5 4 5 11 7 9 3 8 6 4 2 4 7 5 2 1 1 1 2 5 7 4 1 6 7 5 5 7 5 5 7 7 13 16 16 9 9 11 8 3 1 2
25 24 20 19 16 11 1 4 3 5 10 3 7 1 12 9 1 4 2 1 3 1 2 4 4 2 2 4 6 5 2 6 7 5 8 6 5 5 10 11 16 17 10 13 13 10 4 3 1
30 25 18 19 16 10 4 6 5 4 10 1 7 9 11 2 7 3 1 4 4 3 3 6 5 8 5 1 3 3 4 1 1 2 5 4 1 6 8 14 16 19 12 11 11 10 6 5 4
30 26 22 21 13 9 10 12 3 3 8 6 9 8 9 11 8 5 1 1 5 3 4 7 8 9 13 6 2 2 2 3 3 4 4 3 1 4 8 13 15 17 12 6 8 6 5 5 6
15 26 26 30 23 23 24 14 3 1 6 5 9 11 8 11 8 5 8 4 3 6 6 6 6 7 13 12 4 3 4 3 5 6 2 4 2 2 6 11 12 13 15 9 6 3 3 6 8
9 16 26 25 27 23 19 9 5 3 3 2 2 4 5 6 11 13 16 12 4 8 6 7 7 6 12 11 6 5 4 4 6 7 3 1 1 4 6 9 10 9 10 10 5 2 4 7 9
4 12 19 21 26 20 17 9 9 10 7 9 5 6 12 14 14 11 18 13 6 9 8 8 6 7 7 7 6 6 7 7 5 4 5 5 5 7 6 7 9 9 6 7 6 4 2 6 8
6 2 17 22 21 17 16 13 13 14 14 11 1 11 18 17 18 3 5 4 6 8 5 2 7 8 6 5 7 6 8 11 11 7 5 6 6 8 8 9 10 9 6 4 4 4 4 5 7
Wind_Direction
49 45 40 53 63 60 56 70 76 82 79 95 105 104 101 98 98 95 86 88 98 104 113 114 122 119 114 106 108 108 109 110 111 98 94 89 80 77 70 61 61 63 74 69 61 65 61 51 61
55 48 44 50 59 60 56 71 72 80 83 91 102 106 107 113 114 109 95 96 109 114 120 119 118 120 108 113 115 115 109 116 108 101 96 91 83 78 76 68 61 59 63 69 65 61 59 49 58
50 46 39 53 65 83 68 70 63 81 101 92 105 117 108 115 111 115 110 111 108 113 117 116 116 109 112 115 117 115 113 108 107 105 99 91 83 78 71 67 68 60 59 59 61 54 54 47 49
54 54 49 68 72 74 89 86 80 69 80 94 106 113 109 113 120 113 119 118 116 115 112 111 110 111 114 113 112 105 103 105 103 97 96 95 85 73 71 68 72 64 51 52 53 50 47 40 42
58 54 56 52 66 69 71 88 82 80 79 89 101 105 114 118 129 128 125 125 119 119 114 113 109 106 109 106 106 105 102 96 94 96 96 93 80 62 62 57 54 58 48 44 42 46 53 41 32
56 66 63 51 53 62 62 62 75 76 82 82 97 101 102 121 140 129 128 132 124 118 111 110 111 112 112 111 110 102 103 100 98 91 88 87 78 65 55 55 42 50 50 46 42 44 46 57 46
63 70 76 77 64 53 54 57 61 76 88 91 93 107 114 126 127 123 130 130 122 112 109 119 123 119 119 113 107 105 103 102 102 99 100 95 81 71 57 48 38 43 45 52 48 51 41 63 61
30 47 56 62 70 68 65 60 63 70 69 74 80 97 113 133 128 129 124 120 114 114 117 120 117 117 114 120 120 108 102 103 100 105 105 96 93 78 68 63 51 57 42 44 51 74 54 69 65
51 45 43 49 43 53 76 77 70 70 74 78 92 96 116 124 135 133 129 132 129 133 131 133 129 127 128 125 115 114 122 128 125 130 109 105 86 82 83 75 69 44 29 48 61 69 55 52 58
33 23 55 41 53 55 64 76 82 80 82 83 85 92 93 112 126 137 138 137 135 139 137 135 132 133 124 123 118 115 121 111 122 141 116 110 84 89 81 72 54 35 30 37 48 49 51 48 46
66 54 58 37 67 46 61 65 72 82 85 79 92 81 50 75 98 115 133 140 141 148 140 142 136 135 133 134 127 118 114 117 111 133 113 105 92 86 80 63 40 42 35 45 51 46 63 69 46
40 46 44 40 66 78 65 57 49 60 81 78 80 101 107 76 93 138 162 153 154 159 148 155 150 157 142 145 135 127 168 145 145 142 127 118 102 132 13 40 51 44 25 37 49 50 62 69 58
56 47 37 44 17 103 74 69 59 51 67 73 71 75 94 119 108 118 148 147 160 166 160 178 169 190 187 198 142 230 227 173 183 164 134 104 122 279 342 20 23 12 17 19 32 26 43 52 70
43 53 34 41 69 95 75 65 57 53 52 74 73 71 72 93 132 138 118 121 142 172 170 175 190 232 239 230 184 209 238 156 167 151 105 185 358 317 334 347 349 341 333 331 331 5 21 31 31
46 52 54 49 65 80 105 96 73 61 52 44 73 80 76 78 100 113 120 133 152 197 100 125 182 257 264 248 210 205 182 88 121 105 91 10 7 337 337 337 337 320 321 318 323 344 356 19 56
54 63 64 46 101 63 54 75 82 69 62 50 47 49 74 78 79 101 124 126 118 169 170 160 148 242 246 223 217 203 156 125 102 102 127 189 308 330 337 356 343 338 329 333 351 347 353 1 77
167 98 116 100 143 86 60 48 70 60 32 64 58 48 53 66 80 94 112 112 119 130 171 174 173 198 235 222 225 200 163 171 195 181 166 174 355 350 7 8 9 358 352 340 4 5 330 14 85
211 114 95 147 180 68 88 78 51 41 44 61 84 74 63 58 66 65 87 108 101 109 132 151 178 200 216 225 206 201 182 187 201 167 161 197 93 27 356 351 355 335 348 349 355 7 330 342 66
223 218 107 112 182 114 105 72 55 39 61 56 37 101 108 90 78 87 66 72 90 80 95 144 145 114 199 184 156 182 187 162 184 180 185 172 24 343 322 346 340 326 326 336 334 14 324 293 302
218 230 185 126 102 143 138 46 19 42 69 23 350 43 124 106 81 73 79 68 73 68 57 89 150 168 157 137 146 168 190 186 198 164 169 175 32 325 331 343 326 314 305 285 297 319 294 296 264
232 236 204 151 151 145 182 165 58 55 41 66 18 52 124 100 86 72 65 64 53 59 53 46 79 115 128 142 153 174 204 201 189 167 185 226 292 303 321 334 335 332 300 250 235 264 279 256 259
228 223 229 195 186 248 172 161 238 57 9 317 96 60 51 57 66 77 63 48 43 47 61 57 333 115 103 70 147 180 202 204 202 202 212 257 306 319 335 339 343 335 314 223 222 221 247 174 291
193 216 214 177 193 213 230 298 16 352 348 312 168 8 12 76 318 3 67 37 44 24 7 36 349 57 73 71 51 234 235 243 250 265 262 288 323 328 332 344 347 335 305 218 219 225 217 167 99
199 201 207 195 207 218 246 301 45 319 328 197 190 323 25 29 19 207 106 23 1 302 308 278 298 318 38 60 48 37 223 242 247 255 288 312 313 360 352 357 357 341 311 224 217 224 207 224 140
222 214 212 224 220 173 203 285 316 310 332 261 38 40 20 315 337 221 1 343 300 299 254 261 270 275 280 14 29 20 30 42 230 255 274 303 297 13 18 18 7 356 339 216 198 212 217 231 203
216 224 229 237 244 208 239 255 261 332 357 67 60 43 19 14 333 331 303 309 294 281 275 279 263 254 265 262 278 308 335 344 350 334 300 281 157 40 28 28 19 15 26 112 197 212 235 268 283
226 227 230 234 252 251 247 231 228 5 334 68 59 34 1 7 341 259 308 307 282 290 324 298 273 261 261 255 249 268 272 324 342 17 41 147 108 43 16 21 21 23 42 70 117 137 257 289 296
227 225 228 225 230 219 214 218 257 251 58 322 322 38 332 333 305 280 283 298 293 283 305 294 284 280 270 255 238 242 270 304 319 322 316 255 325 322 339 2 3 15 33 52 70 170 249 261 266
224 233 214 206 199 211 209 217 255 252 236 236 254 347 336 321 306 238 261 266 251 265 274 273 293 288 276 263 233 256 269 290 315 313 267 255 294 298 296 332 346 337 4 30 29 15 307 276 273
201 313 215 212 205 203 224 242 257 245 288 238 286 341 334 316 309 200 242 241 237 241 263 294 254 265 285 306 255 254 284 303 309 291 265 256 272 286 284 289 302 303 303 335 355 348 336 304 290